Regional Weather Roundup
Issued by NWS

Home | Current Version | Previous Version | Text Only | Print | Product List | Glossary On
Versions: 1 2 3 4 5 6 7 8 9 10 11 12 13 14 15 16 17 18 19 20 21 22 23 24 25 26 27 28 29 30 31 32 33 34 35 36 37 38 39 40 41 42 43 44 45 46 47 48 49 50
000
ASUS43 KTOP 220559
RWRKS

WEATHER ROUNDUP FOR KANSAS
NATIONAL WEATHER SERVICE GOODLAND KS
100 AM CDT TUE AUG 22 2017

NOTE:  "FAIR" INDICATES FEW OR NO CLOUDS BELOW 12,000 FEET WITH NO
SIGNIFICANT WEATHER AND/OR OBSTRUCTIONS TO VISIBILITY.

KSZ001>006-013>018-027>032-041>047-220700-
NORTHWEST KANSAS

CITY           SKY/WX    TMP DP  RH WIND       PRES   REMARKS
GOODLAND       MOCLDY    69  64  84 N13       30.15R
6HR MIN TEMP:  69; 6HR MAX TEMP:  86;

HAYS           PTCLDY    76  67  73 W6        29.99R
HILL CITY      PTCLDY    73  68  84 N16       30.05R
6HR MIN TEMP:  73; 6HR MAX TEMP:  92;

RUSSELL        PTCLDY    72  66  81 W6        29.97R
6HR MIN TEMP:  72; 6HR MAX TEMP:  89;

$$

KSZ061>065-074>080-084>089-220700-
SOUTHWEST KANSAS

CITY           SKY/WX    TMP DP  RH WIND       PRES   REMARKS
DODGE CITY     CLEAR     75  66  73 SW10      30.03S
6HR MIN TEMP:  75; 6HR MAX TEMP:  85;

ELKHART          N/A     70  67  90 SW8         N/A
GARDEN CITY    CLEAR     70  65  84 W7        30.05R
6HR MIN TEMP:  70; 6HR MAX TEMP:  85;

GREAT BEND     MOCLDY    73  69  87 CALM      29.99R
LIBERAL        CLEAR     72  66  81 SW10      30.07
$$

KSZ066>073-081>083-090>101-220700-
SOUTHEAST KANSAS

CITY           SKY/WX    TMP DP  RH WIND       PRES   REMARKS
CHANUTE        PTCLDY    82  74  76 S18G26    29.97F
6HR MIN TEMP:  82; 6HR MAX TEMP:  87;

COFFEYVILLE    CLOUDY    82  74  76 S17G24    29.99F
6HR MIN TEMP:  80; 6HR MAX TEMP:  88;

HUTCHINSON     PTCLDY    77  70  79 S6        29.97R
6HR MIN TEMP:  75; 6HR MAX TEMP:  84;

MEDICINE LODGE   N/A     76  69  79 S7        30.00R
NEWTON         CLOUDY    80  70  71 SW15      29.97F
PARSONS        CLOUDY    82  74  76 S12G20    30.00F
6HR MIN TEMP:  81; 6HR MAX TEMP:  88;

WICHITA INTL   MOCLDY    78  71  79 S12       29.97S
6HR MIN TEMP:  75; 6HR MAX TEMP:  91; 6HR PCP:  0.29;

WICHITA JABRA  CLEAR     79  72  79 S15       29.97S
6HR MIN TEMP:  74; 6HR MAX TEMP:  86; 6HR PCP:  0.34;

WINFIELD       CLOUDY    81  71  71 S12       29.99F
6HR MIN TEMP:  81; 6HR MAX TEMP:  88;

$$

KSZ007>012-019>026-033>040-048>060-102>105-220700-
NORTHEAST KANSAS

CITY           SKY/WX    TMP DP  RH WIND       PRES   REMARKS
CONCORDIA      PTCLDY    73  70  90 NW3       29.94R
6HR MIN TEMP:  73; 6HR MAX TEMP:  80;

EMPORIA        CLOUDY    77  72  84 S14G21    29.95
6HR MIN TEMP:  71; 6HR MAX TEMP:  89;

LAWRENCE       TSTM      70  70 100 VRB5      29.96F VSB 1
6HR MIN TEMP:  70; 6HR MAX TEMP:  88; 6HR PCP:  3.00;

MANHATTAN      CLOUDY    74  73  97 N5        29.94R
6HR MIN TEMP:  74; 6HR MAX TEMP:  80; 6HR PCP:  0.05;

OLATHE IND     TSTM      70  69  97 CALM      30.00R FOG
6HR MIN TEMP:  69; 6HR MAX TEMP:  83; 6HR PCP:  3.03;

OLATHE EXE     TSTM      68  68 100 E6        29.97S FOG
6HR MIN TEMP:  68; 6HR MAX TEMP:  83; 6HR PCP:  3.35;

SALINA         MOCLDY    78  70  76 S5        29.93S
6HR MIN TEMP:  78; 6HR MAX TEMP:  88;

TOPEKA BILLARD TSTM      72  72 100 S13G21    29.94F FOG
6HR MIN TEMP:  71; 6HR MAX TEMP:  90; 6HR PCP:  3.80;

TOPEKA FORBES  TSTM      73  71  93 S8        29.95F FOG
6HR MIN TEMP:  72; 6HR MAX TEMP:  89; 6HR PCP:  2.54;

$$




USA.gov is the U.S. government's official web portal to all federal, state and local government web resources and services.